Погода в Старых Атагах

Россия / Чеченская Республика     43°07′22″N   45°44′29″E
темп.,
°C
ветер,
м/с
пор.,
м/с
влажн.,
%
обл.,
%
осадки,
мм/ч
давл.,
гПа
погр.,
м
16 мая, вс
вс1600:00+16ю455849 0.0 101378
03:00+16ю455814 0.0 101281
06:00+17ю35614 0.0 1011104
09:00+26ссв22362 0.0 1009916
12:00+27ссв33370 0.0 10081157
15:00+28ссв33382 0.0 10061144
18:00+25ссз11580 0.0 100511
21:00+18ю574326 0.0 1007125
17 мая, пн
пн1700:00+17ю583468 0.0 1006143
03:00+16ю56375 0.0 1006113
06:00+18ю46473 0.0 1006110
09:00+28ссв122674 0.0 1004830
12:00+29с32310 0.0 10041005
15:00+30ссв323076 0.0 1003977
18:00+24ссз1160100 0.0 100411
21:00+19юз1270100 0.0 100847
18 мая, вт
вт1800:00+17ю2173100 0.0 100717
03:00+15юз12758 0.0 100861
06:00+16зсз2584100 0.1 1011649
09:00+16сз2588100 0.5 1011598
12:00+15з1289100 0.6 1012358
15:00+18юз117290 1.0 1012664
18:00+17з118086 0.3 101240
21:00+14ю229499 1.6 101436
19 мая, ср
ср1900:00+13ю339217 0.0 101342
03:00+12ю33909 0.0 101347
06:00+14ю23774 0.0 101479
09:00+21с32540 0.0 1013872
12:00+23с325021 0.0 10141625
15:00+22ссв345394 0.1 10151206
18:00+19ююз1166100 0.0 101721
21:00+17з137082 0.0 1019100
20 мая, чт
чт2000:00+13ю21890 0.0 101913
03:00+12ю22895 0.0 101922
06:00+15ю127411 0.0 101885
09:00+20ссв225730 0.0 1016747
12:00+26с334333 0.0 10131127
15:00+27с42401 0.0 10111171
18:00+21ссз12665 0.0 1012120
21:00+17ю23731 0.0 101235